BEIDOU-3 M24

Last updated on Sun Sep 06 2026 00:02:48 GMT+0000 (Coordinated Universal Time)

1 44542U 19061A 26247.17476159 .00000016 00000+0 00000+0 0 9992 2 44542 54.3948 180.0656 0009112 9.7161 350.2990 1.86229416 47263
UTC large
Height (km)
Speed (km/s)
/
Latitude / Longitude
Inclination (degrees)
Orbital Period (minutes)
Azimuth
Elevation
Range (km)
Doppler Factor

Next 0 passes for location: London (51.5072 / 0.1276)

No passes found over London.
BEIDOU-3 M24